TimeCDT,TemperatureF,Dew PointF,Humidity,Sea Level PressureIn,VisibilityMPH,Wind Direction,Wind SpeedMPH,Gust SpeedMPH,PrecipitationIn,Events,Conditions,WindDirDegrees,DateUTC
12:15 AM,84.2,69.8,62,29.90,10.0,Calm,Calm,-,N/A,,Clear,0,2013-07-13 05:15:00
12:35 AM,82.4,71.6,70,29.91,10.0,North,3.5,-,N/A,,Clear,10,2013-07-13 05:35:00
12:55 AM,82.4,71.6,70,29.91,10.0,Calm,Calm,-,N/A,,Clear,0,2013-07-13 05:55:00
1:15 AM,82.4,71.6,70,29.91,10.0,Calm,Calm,-,N/A,,Clear,0,2013-07-13 06:15:00
1:35 AM,82.4,69.8,66,29.90,10.0,WNW,3.5,-,N/A,,Clear,290,2013-07-13 06:35:00
1:55 AM,82.4,69.8,66,29.90,10.0,Calm,Calm,-,N/A,,Clear,0,2013-07-13 06:55:00
2:15 AM,82.4,69.8,66,29.90,10.0,Calm,Calm,-,N/A,,Clear,0,2013-07-13 07:15:00
2:35 AM,82.4,69.8,66,29.90,10.0,Calm,Calm,-,N/A,,Clear,0,2013-07-13 07:35:00
2:55 AM,80.6,73.4,79,29.90,10.0,North,3.5,-,N/A,,Clear,10,2013-07-13 07:55:00
3:15 AM,82.4,71.6,70,29.90,10.0,NNE,4.6,-,N/A,,Clear,20,2013-07-13 08:15:00
3:35 AM,80.6,69.8,70,29.90,10.0,North,4.6,-,N/A,,Clear,10,2013-07-13 08:35:00
3:55 AM,80.6,69.8,70,29.90,10.0,Calm,Calm,-,N/A,,Clear,0,2013-07-13 08:55:00
4:15 AM,80.6,69.8,70,29.89,10.0,North,3.5,-,N/A,,Clear,10,2013-07-13 09:15:00
4:35 AM,80.6,69.8,70,29.89,10.0,North,5.8,-,N/A,,Clear,360,2013-07-13 09:35:00
4:55 AM,80.6,69.8,70,29.90,10.0,North,4.6,-,N/A,,Clear,360,2013-07-13 09:55:00
5:15 AM,80.6,69.8,70,29.89,10.0,NE,3.5,-,N/A,,Clear,40,2013-07-13 10:15:00
5:35 AM,80.6,71.6,74,29.89,10.0,NE,4.6,-,N/A,,Clear,40,2013-07-13 10:35:00
5:55 AM,80.6,71.6,74,29.90,10.0,NE,6.9,-,N/A,,Clear,50,2013-07-13 10:55:00
6:15 AM,78.8,71.6,78,29.90,10.0,NE,4.6,-,N/A,,Clear,40,2013-07-13 11:15:00
6:35 AM,78.8,71.6,78,29.90,10.0,NE,3.5,-,N/A,,Clear,40,2013-07-13 11:35:00
6:55 AM,78.8,69.8,74,29.90,10.0,NE,4.6,-,N/A,,Clear,50,2013-07-13 11:55:00
7:15 AM,80.6,69.8,70,29.92,10.0,NE,3.5,-,N/A,,Clear,50,2013-07-13 12:15:00
7:35 AM,80.6,69.8,70,29.92,10.0,ENE,8.1,-,N/A,,Clear,60,2013-07-13 12:35:00
7:55 AM,80.6,69.8,70,29.93,10.0,NNE,3.5,-,N/A,,Clear,30,2013-07-13 12:55:00
8:15 AM,80.6,69.8,70,29.93,10.0,NE,5.8,-,N/A,,Clear,40,2013-07-13 13:15:00
8:35 AM,82.4,69.8,66,29.94,10.0,NE,3.5,-,N/A,,Clear,40,2013-07-13 13:35:00
8:55 AM,82.4,69.8,66,29.93,10.0,North,6.9,-,N/A,,Clear,10,2013-07-13 13:55:00
9:15 AM,84.2,71.6,66,29.94,10.0,ESE,3.5,-,N/A,,Clear,120,2013-07-13 14:15:00
9:35 AM,84.2,71.6,66,29.94,10.0,ENE,4.6,-,N/A,,Clear,70,2013-07-13 14:35:00
9:55 AM,84.2,71.6,66,29.93,10.0,Calm,Calm,-,N/A,,Clear,0,2013-07-13 14:55:00
10:15 AM,87.8,71.6,58,29.94,10.0,Calm,Calm,-,N/A,,Clear,0,2013-07-13 15:15:00
10:35 AM,87.8,71.6,58,29.93,10.0,Calm,Calm,-,N/A,,Clear,0,2013-07-13 15:35:00
10:55 AM,87.8,71.6,58,29.93,10.0,NE,4.6,-,N/A,,Clear,50,2013-07-13 15:55:00
11:15 AM,87.8,71.6,58,29.93,10.0,NNW,4.6,-,N/A,,Mostly Cloudy,330,2013-07-13 16:15:00
11:35 AM,87.8,71.6,58,29.93,10.0,North,4.6,-,N/A,,Mostly Cloudy,360,2013-07-13 16:35:00
11:55 AM,87.8,71.6,58,29.94,10.0,NNW,5.8,-,N/A,,Partly Cloudy,340,2013-07-13 16:55:00
12:15 PM,89.6,71.6,55,29.94,10.0,North,6.9,-,N/A,,Clear,360,2013-07-13 17:15:00
12:35 PM,89.6,71.6,55,29.93,10.0,North,4.6,-,N/A,,Clear,360,2013-07-13 17:35:00
12:55 PM,89.6,71.6,55,29.93,10.0,North,8.1,-,N/A,,Clear,360,2013-07-13 17:55:00
1:15 PM,89.6,71.6,55,29.93,10.0,NW,11.5,-,N/A,,Clear,320,2013-07-13 18:15:00
1:35 PM,89.6,71.6,55,29.92,10.0,NW,8.1,-,N/A,,Clear,320,2013-07-13 18:35:00
1:55 PM,89.6,71.6,55,29.93,10.0,NW,5.8,-,N/A,,Clear,320,2013-07-13 18:55:00
2:15 PM,87.8,69.8,55,29.92,10.0,NNW,5.8,-,N/A,,Clear,340,2013-07-13 19:15:00
2:35 PM,89.6,69.8,52,29.90,10.0,North,3.5,-,N/A,,Clear,10,2013-07-13 19:35:00
2:55 PM,89.6,69.8,52,29.89,10.0,NW,5.8,-,N/A,,Clear,310,2013-07-13 19:55:00
3:15 PM,91.4,69.8,49,29.89,10.0,NE,5.8,-,N/A,,Clear,40,2013-07-13 20:15:00
3:35 PM,89.6,69.8,52,29.87,10.0,NNW,3.5,-,N/A,,Clear,330,2013-07-13 20:35:00
3:55 PM,91.4,69.8,49,29.88,10.0,NNW,6.9,-,N/A,,Partly Cloudy,340,2013-07-13 20:55:00
4:15 PM,91.4,69.8,49,29.89,10.0,NNE,9.2,-,N/A,,Partly Cloudy,30,2013-07-13 21:15:00
4:35 PM,89.6,69.8,52,29.88,9.0,NNE,5.8,-,N/A,,Mostly Cloudy,20,2013-07-13 21:35:00
4:55 PM,87.8,71.6,58,29.89,10.0,NE,9.2,18.4,N/A,,Mostly Cloudy,50,2013-07-13 21:55:00
5:15 PM,87.8,69.8,55,29.89,10.0,ENE,3.5,-,N/A,,Partly Cloudy,60,2013-07-13 22:15:00
5:35 PM,87.8,69.8,55,29.88,10.0,ENE,3.5,-,N/A,,Clear,60,2013-07-13 22:35:00
5:55 PM,87.8,69.8,55,29.89,10.0,Calm,Calm,-,N/A,,Clear,0,2013-07-13 22:55:00
6:15 PM,87.8,71.6,58,29.89,10.0,Calm,Calm,-,N/A,,Mostly Cloudy,0,2013-07-13 23:15:00
6:35 PM,87.8,73.4,62,29.89,10.0,North,3.5,-,N/A,,Scattered Clouds,360,2013-07-13 23:35:00
6:55 PM,87.8,71.6,58,29.89,10.0,East,6.9,-,N/A,,Clear,80,2013-07-13 23:55:00
7:15 PM,86.0,73.4,66,29.90,9.0,ENE,4.6,-,N/A,,Clear,70,2013-07-14 00:15:00
7:35 PM,86.0,73.4,66,29.90,10.0,Calm,Calm,-,N/A,,Partly Cloudy,0,2013-07-14 00:35:00
7:55 PM,84.2,66.2,55,29.91,10.0,East,6.9,-,N/A,,Partly Cloudy,80,2013-07-14 00:55:00
8:15 PM,84.2,66.2,55,29.90,10.0,ESE,4.6,-,N/A,,Partly Cloudy,120,2013-07-14 01:15:00
8:35 PM,82.4,69.8,66,29.89,10.0,SE,4.6,-,N/A,,Clear,140,2013-07-14 01:35:00
8:55 PM,84.2,71.6,66,29.89,10.0,South,6.9,-,N/A,,Clear,170,2013-07-14 01:55:00
9:15 PM,84.2,71.6,66,29.89,10.0,SSE,4.6,-,N/A,,Clear,160,2013-07-14 02:15:00
9:35 PM,84.2,71.6,66,29.89,10.0,SSE,4.6,-,N/A,,Clear,160,2013-07-14 02:35:00
9:55 PM,84.2,71.6,66,29.90,10.0,SSW,3.5,-,N/A,,Clear,200,2013-07-14 02:55:00
10:15 PM,84.2,71.6,66,29.91,10.0,Calm,Calm,-,N/A,,Clear,0,2013-07-14 03:15:00
10:35 PM,82.4,71.6,70,29.92,10.0,Calm,Calm,-,N/A,,Clear,0,2013-07-14 03:35:00
10:55 PM,82.4,71.6,70,29.94,10.0,ENE,5.8,-,N/A,,Clear,60,2013-07-14 03:55:00
11:15 PM,82.4,71.6,70,29.95,10.0,ENE,5.8,-,N/A,,Clear,60,2013-07-14 04:15:00
11:35 PM,80.6,73.4,79,29.95,10.0,East,3.5,-,N/A,,Partly Cloudy,90,2013-07-14 04:35:00
11:55 PM,80.6,73.4,79,29.95,10.0,NE,6.9,-,N/A,,Scattered Clouds,50,2013-07-14 04:55:00